| time (UTC) | temp F | wind direction | speed MPH | gust MPH | rain 1hr in | rain 24hr in | rain mn in | humidity % | barometer mb |
| 20260509124539 | 65 | 115 | 0.0 | 3.0 | 0.00 | 0.00 | 0.00 | 70 | 1016.3 |
| 20260509123031 | 64 | 222 | 1.0 | 7.0 | 0.00 | 0.00 | 0.00 | 72 | 1016.4 |
| 20260509121529 | 64 | 115 | 0.0 | 7.0 | 0.00 | 0.00 | 0.00 | 75 | 1017.2 |
| 20260509120023 | 64 | 155 | 1.0 | 8.0 | 0.00 | 0.00 | 0.00 | 78 | 1017.6 |
| 20260509114523 | 65 | 110 | 1.0 | 7.0 | 0.00 | 0.00 | 0.00 | 73 | 1018.3 |
| 20260509113022 | 65 | 136 | 3.0 | 11.0 | 0.00 | 0.00 | 0.00 | 68 | 1018.2 |
| 20260509111520 | 65 | 103 | 5.0 | 10.0 | 0.00 | 0.00 | 0.00 | 72 | 1018.4 |
| 20260509110024 | 64 | 77 | 3.0 | 9.0 | 0.00 | 0.00 | 0.00 | 79 | 1018.2 |
| 20260509104518 | 64 | 60 | 2.0 | 8.0 | 0.00 | 0.00 | 0.00 | 82 | 1018.2 |
| 20260509103020 | 65 | 138 | 2.0 | 6.0 | 0.00 | 0.00 | 0.00 | 77 | 1018.4 |
| 20260509101521 | 66 | 204 | 0.0 | 6.0 | 0.00 | 0.00 | 0.00 | 77 | 1018.3 |
| 20260509100019 | 65 | 134 | 0.0 | 5.0 | 0.00 | 0.00 | 0.00 | 76 | 1018.3 |
| 20260509094517 | 66 | 139 | 1.0 | 5.0 | 0.00 | 0.00 | 0.00 | 76 | 1018.2 |
| 20260509093021 | 66 | 149 | 0.0 | 5.0 | 0.00 | 0.00 | 0.00 | 76 | 1018.0 |
| 20260509091513 | 65 | 340 | 1.0 | 3.0 | 0.00 | 0.00 | 0.00 | 78 | 1018.0 |
| 20260509090011 | 63 | 27 | 2.0 | 5.0 | 0.00 | 0.00 | 0.00 | 80 | 1017.7 |
| 20260509084513 | 64 | 263 | 0.0 | 4.0 | 0.00 | 0.00 | 0.00 | 79 | 1017.9 |
| 20260509083010 | 64 | 330 | 1.0 | 4.0 | 0.00 | 0.00 | 0.00 | 78 | 1017.9 |
| 20260509081509 | 64 | 153 | 1.0 | 4.0 | 0.00 | 0.00 | 0.00 | 79 | 1017.6 |
| 20260509080004 | 63 | 262 | 0.0 | 2.0 | 0.00 | 0.00 | 0.00 | 79 | 1017.7 |
| 20260509074616 | 63 | 150 | 0.0 | 2.0 | 0.00 | 0.00 | 0.00 | 81 | 1017.8 |
| 20260509073058 | 62 | 190 | 0.0 | 3.0 | 0.00 | 0.00 | 0.00 | 83 | 1018.0 |
| 20260509071600 | 61 | 229 | 0.0 | 3.0 | 0.00 | 0.00 | 0.00 | 85 | 1018.3 |
| 20260509064552 | 60 | 308 | 0.0 | 2.0 | 0.00 | 0.00 | 0.00 | 86 | 1018.4 |
| 20260509063048 | 60 | 186 | 0.0 | 2.0 | 0.00 | 0.00 | 0.00 | 86 | 1018.6 |
| 20260509061550 | 59 | 281 | 1.0 | 3.0 | 0.00 | 0.00 | 0.00 | 85 | 1018.7 |
| 20260509060045 | 59 | 292 | 0.0 | 2.0 | 0.00 | 0.00 | 0.00 | 86 | 1018.8 |
| 20260509054601 | 58 | 293 | 0.0 | 1.0 | 0.00 | 0.00 | 0.00 | 87 | 1018.6 |
| 20260509053135 | 58 | 292 | 0.0 | 2.0 | 0.00 | 0.00 | 0.00 | 88 | 1018.5 |
| 20260509051547 | 57 | 293 | 0.0 | 1.0 | 0.00 | 0.00 | 0.00 | 91 | 1018.6 |
| 20260509050045 | 57 | 293 | 0.0 | 0.0 | 0.00 | 0.00 | 0.00 | 92 | 1018.8 |
| 20260509044537 | 57 | 292 | 0.0 | 0.0 | 0.00 | 0.00 | 0.00 | 91 | 1018.5 |
| 20260509043037 | 57 | 292 | 0.0 | 0.0 | 0.00 | 0.00 | 0.00 | 90 | 1018.7 |
| 20260509041535 | 57 | 292 | 0.0 | 0.0 | 0.00 | 0.00 | 0.00 | 89 | 1018.8 |
| 20260509040034 | 57 | 292 | 0.0 | 0.0 | 0.00 | 0.00 | 0.00 | 90 | 1018.7 |
| 20260509034533 | 58 | 293 | 0.0 | 0.0 | 0.00 | 0.00 | 0.00 | 89 | 1018.8 |
| 20260509033032 | 58 | 292 | 0.0 | 1.0 | 0.00 | 0.00 | 0.00 | 89 | 1018.8 |
| 20260509031532 | 58 | 293 | 0.0 | 0.0 | 0.00 | 0.00 | 0.00 | 89 | 1019.0 |
| 20260509030035 | 57 | 292 | 0.0 | 0.0 | 0.00 | 0.00 | 0.00 | 89 | 1018.9 |
| 20260509024532 | 57 | 292 | 0.0 | 0.0 | 0.00 | 0.00 | 0.00 | 89 | 1018.9 |
| 20260509023040 | 57 | 292 | 0.0 | 0.0 | 0.00 | 0.00 | 0.00 | 89 | 1019.0 |
| 20260509021528 | 57 | 4 | 0.0 | 1.0 | 0.00 | 0.00 | 0.00 | 90 | 1019.1 |
| 20260509020026 | 57 | 5 | 0.0 | 1.0 | 0.00 | 0.00 | 0.00 | 89 | 1019.2 |
| 20260509014523 | 57 | 5 | 0.0 | 0.0 | 0.00 | 0.00 | 0.00 | 90 | 1019.5 |
| 20260509013027 | 57 | 5 | 0.0 | 0.0 | 0.00 | 0.00 | 0.00 | 88 | 1019.7 |
| 20260509011522 | 57 | 5 | 0.0 | 0.0 | 0.00 | 0.00 | 0.00 | 88 | 1019.7 |
| 20260509010020 | 57 | 4 | 0.0 | 0.0 | 0.00 | 0.00 | 0.00 | 89 | 1020.0 |
| 20260509004518 | 58 | 4 | 0.0 | 3.0 | 0.00 | 0.00 | 0.00 | 89 | 1020.0 |
| 20260509003022 | 57 | 300 | 0.0 | 1.0 | 0.00 | 0.00 | 0.00 | 89 | 1020.2 |
| 20260509001514 | 57 | 301 | 0.0 | 0.0 | 0.00 | 0.00 | 0.00 | 90 | 1020.2 |
| 20260509000013 | 57 | 301 | 0.0 | 1.0 | 0.00 | 0.00 | 0.00 | 89 | 1020.3 |
| 20260508234511 | 57 | 300 | 0.0 | 1.0 | 0.00 | 0.00 | 0.00 | 89 | 1020.2 |
| 20260508233010 | 57 | 300 | 0.0 | 1.0 | 0.00 | 0.00 | 0.00 | 90 | 1020.3 |
| 20260508231508 | 56 | 128 | 0.0 | 1.0 | 0.00 | 0.00 | 0.00 | 91 | 1020.3 |
| 20260508230009 | 56 | 129 | 0.0 | 0.0 | 0.00 | 0.00 | 0.00 | 92 | 1020.5 |
| 20260508224505 | 55 | 128 | 0.0 | 0.0 | 0.00 | 0.00 | 0.00 | 92 | 1020.4 |
| 20260508223003 | 55 | 128 | 0.0 | 0.0 | 0.00 | 0.00 | 0.00 | 93 | 1020.4 |
| 20260508221502 | 55 | 128 | 0.0 | 2.0 | 0.00 | 0.00 | 0.00 | 93 | 1020.5 |
| 20260508220058 | 54 | 128 | 0.0 | 0.0 | 0.00 | 0.00 | 0.00 | 94 | 1020.6 |
| 20260508214558 | 53 | 128 | 0.0 | 0.0 | 0.00 | 0.00 | 0.00 | 94 | 1020.6 |
| 20260508213102 | 54 | 128 | 0.0 | 0.0 | 0.00 | 0.00 | 0.00 | 93 | 1020.6 |
| 20260508211557 | 54 | 128 | 0.0 | 0.0 | 0.00 | 0.00 | 0.00 | 92 | 1020.6 |
| 20260508210056 | 54 | 128 | 0.0 | 0.0 | 0.00 | 0.00 | 0.00 | 93 | 1020.5 |
| 20260508204556 | 54 | 128 | 0.0 | 0.0 | 0.00 | 0.00 | 0.00 | 93 | 1020.6 |
| 20260508203054 | 55 | 128 | 0.0 | 0.0 | 0.00 | 0.00 | 0.00 | 93 | 1020.4 |
| 20260508201600 | 55 | 128 | 0.0 | 0.0 | 0.00 | 0.00 | 0.00 | 92 | 1020.1 |
| 20260508200059 | 56 | 128 | 0.0 | 0.0 | 0.00 | 0.00 | 0.00 | 91 | 1020.0 |
| 20260508194550 | 56 | 128 | 0.0 | 0.0 | 0.00 | 0.00 | 0.00 | 89 | 1019.7 |
| 20260508193058 | 57 | 129 | 0.0 | 0.0 | 0.00 | 0.00 | 0.00 | 87 | 1019.7 |
| 20260508191549 | 59 | 128 | 0.0 | 0.0 | 0.00 | 0.00 | 0.00 | 84 | 1019.5 |
| 20260508190048 | 60 | 128 | 0.0 | 1.0 | 0.00 | 0.00 | 0.00 | 83 | 1019.4 |
| 20260508184559 | 61 | 129 | 0.0 | 2.0 | 0.00 | 0.00 | 0.00 | 82 | 1019.4 |
| 20260508183059 | 61 | 143 | 0.0 | 2.0 | 0.00 | 0.00 | 0.00 | 81 | 1019.2 |
| 20260508181545 | 61 | 139 | 0.0 | 4.0 | 0.00 | 0.00 | 0.00 | 81 | 1019.0 |
| 20260508180045 | 62 | 146 | 2.0 | 6.0 | 0.00 | 0.00 | 0.00 | 80 | 1019.0 |
| 20260508174559 | 62 | 103 | 2.0 | 7.0 | 0.00 | 0.00 | 0.00 | 79 | 1018.9 |
| 20260508173044 | 63 | 120 | 3.0 | 6.0 | 0.00 | 0.00 | 0.00 | 76 | 1018.7 |
| 20260508171544 | 64 | 115 | 3.0 | 7.0 | 0.00 | 0.00 | 0.00 | 74 | 1018.7 |
| 20260508170043 | 65 | 145 | 3.0 | 7.0 | 0.00 | 0.00 | 0.00 | 71 | 1018.6 |
| 20260508164547 | 65 | 128 | 3.0 | 8.0 | 0.00 | 0.00 | 0.00 | 69 | 1018.4 |
| 20260508163107 | 65 | 177 | 3.0 | 9.0 | 0.00 | 0.00 | 0.00 | 68 | 1018.4 |
| 20260508161541 | 65 | 125 | 3.0 | 8.0 | 0.00 | 0.00 | 0.00 | 68 | 1018.2 |
| 20260508160040 | 66 | 150 | 3.0 | 9.0 | 0.00 | 0.00 | 0.00 | 69 | 1018.6 |
| 20260508154543 | 65 | 79 | 3.0 | 10.0 | 0.00 | 0.00 | 0.00 | 71 | 1018.6 |
| 20260508153040 | 65 | 128 | 4.0 | 10.0 | 0.00 | 0.00 | 0.00 | 72 | 1018.6 |
| 20260508151542 | 66 | 120 | 3.0 | 11.0 | 0.00 | 0.00 | 0.00 | 74 | 1018.7 |
| 20260508150038 | 66 | 103 | 3.0 | 10.0 | 0.00 | 0.00 | 0.00 | 73 | 1018.5 |
| 20260508144539 | 67 | 134 | 5.0 | 10.0 | 0.00 | 0.00 | 0.00 | 69 | 1018.5 |
| 20260508143038 | 67 | 121 | 2.0 | 5.0 | 0.00 | 0.00 | 0.00 | 67 | 1018.4 |
| 20260508141537 | 66 | 160 | 2.0 | 9.0 | 0.00 | 0.00 | 0.00 | 67 | 1018.8 |
| 20260508140035 | 67 | 108 | 1.0 | 10.0 | 0.00 | 0.00 | 0.00 | 66 | 1018.9 |
| 20260508134538 | 68 | 166 | 2.0 | 6.0 | 0.00 | 0.00 | 0.00 | 65 | 1019.1 |
| 20260508133043 | 66 | 126 | 3.0 | 6.0 | 0.00 | 0.00 | 0.00 | 67 | 1019.2 |
| 20260508131536 | 67 | 107 | 2.0 | 7.0 | 0.00 | 0.00 | 0.00 | 64 | 1019.4 |
| 20260508130035 | 68 | 126 | 4.0 | 8.0 | 0.00 | 0.00 | 0.00 | 61 | 1019.2 |